Regional Weather Roundup
Issued by NWS Cleveland, OH

Home | Current Version | Previous Version | Text Only | Print | Product List | Glossary Off
Versions: 1 2 3 4 5 6 7 8 9 10 11 12 13 14 15 16 17 18 19 20 21 22 23 24 25 26 27 28 29 30 31 32 33 34 35 36 37 38 39 40 41 42 43 44 45 46 47 48 49 50

000
ASUS41 KCLE 140210
RWRCLE
OHIO REGIONAL WEATHER ROUNDUP
NATIONAL WEATHER SERVICE CLEVELAND, OH
900 PM EST SAT FEB 13 2016

NOTE: "FAIR" INDICATES FEW OR NO CLOUDS BELOW 12,000 FEET WITH NO
SIGNIFICANT WEATHER AND/OR OBSTRUCTIONS TO VISIBILITY.

OHZ001>008-015>018-024>027-034-035-043-044-140300-
   NORTHWEST OHIO

CITY           SKY/WX    TMP DP  RH WIND       PRES   REMARKS
DEFIANCE       MOCLDY    13   3  64 W3        30.49S
FINDLAY        CLOUDY    13   6  74 W9        30.45F WCI   1
TOLEDO EXPRESS CLOUDY    14   7  73 W5        30.46F WCI   6
TOLEDO EXEC    CLOUDY    15   5  64 NW6       30.48R WCI   6
LIMA           MOCLDY    11   4  73 W8        30.46S WCI  -1
$$

OHZ009>014-019>023-028>033-038-089-140300-
   NORTHEAST OHIO

CITY           SKY/WX    TMP DP  RH WIND       PRES   REMARKS
CLE-HOPKINS    CLOUDY    10   3  73 SW5       30.48R WCI   2
CLE-LAKEFRONT  CLOUDY    15   4  61 NW15      30.45S WCI   0
CUY CO. ARPT   CLOUDY    14   1  57 N16       30.44R WCI  -2
LORAIN-ELYRIA  LGT SNOW   9   6  88 CALM      30.45S FOG
ASHTABULA      CLOUDY     9  -5  53 NW14G22   30.42R WCI  -7
AKRON-CANTON   LGT SNOW   6   1  80 W5        30.41S WCI  -3
WOOSTER        CLOUDY     2  -2  83 CALM      30.43R
MANSFIELD      LGT SNOW  10   6  84 CALM      30.41S FOG
YOUNGSTOWN     LGT SNOW   7   3  84 W6        30.40R WCI  -3
$$

OHZ042-051>053-060>062-070>072-077>081-140300-
  SOUTHWEST OHIO

CITY           SKY/WX    TMP DP  RH WIND       PRES   REMARKS
CINC-COVINGTON CLOUDY    14   1  56 CALM      30.49F
CINC-LUNKEN    CLOUDY    12   5  73 CALM      30.55S
HAMILTON       CLOUDY     8   4  83 CALM      30.53S
DAYTON         CLOUDY     7   0  73 W3        30.49R
WRIGHT-PAT AFB CLEAR      6  -2  70 W2        30.50R
DAYTON GENERAL CLOUDY     9  -2  61 CALM      30.48S
WILMINGTON     CLOUDY     3  -3  76 CALM      30.48S
$$

OHZ036-037-039>041-045>050-054>059-063>069-073>076-082>088-140300-
  CENTRAL AND SOUTHEAST OHIO

CITY           SKY/WX    TMP DP  RH WIND       PRES   REMARKS
COLUMBUS       CLEAR     11   1  64 W10       30.48S WCI  -3
OSU AIRPORT    CLEAR      8   2  76 W7        30.47S WCI  -3
BOLTON FIELD   CLEAR      8   2  76 W5        30.48F WCI  -1
RICKENBACK AFB CLEAR      6   1  79 W6        30.49S WCI  -5
NEWARK         PTCLDY    11   1  64 W5        30.47R WCI   3
MARION         CLOUDY    12   5  73 W6        30.45S WCI   3
LANCASTER      CLOUDY     7   1  76 W5        30.49S WCI  -2
ZANESVILLE     LGT SNOW  13   4  67 W3        30.47R
NEW PHILLY     PTCLDY     6  32 100 CALM      30.46S
$$



USA.gov is the U.S. government's official web portal to all federal, state and local government web resources and services.